,,Stat5,,Stat1,,Stat2,,Stat3,,Stat4,,Wind1,,Wind1,
time,status,PA1M_AVG,status,PR1M_SUM,status,RH1M_AVG,status,SR1M_AVG,status,TA1M_AVG,status,W1dAve1m,status,W1sAve1m,
2001-05-16, 00:00:00,VALID,918.844,VALID,0,VALID,98.3052,VALID,0,VALID,19.5974,VALID,177,VALID,0,
2001-05-16, 00:01:00,VALID,918.829,VALID,0,VALID,98.3306,VALID,0,VALID,19.539,VALID,177,VALID,0,
2001-05-16, 00:02:00,VALID,918.823,VALID,0,VALID,98.4375,VALID,0.0169808,VALID,19.5422,VALID,177,VALID,0,
2001-05-16, 00:03:00,VALID,918.807,VALID,0,VALID,98.4362,VALID,0.0169808,VALID,19.5223,VALID,114,VALID,0,
2001-05-16, 00:04:00,VALID,918.794,VALID,0,VALID,98.4438,VALID,0,VALID,19.4905,VALID,103,VALID,0,
2001-05-16, 00:05:00,VALID,918.774,VALID,0,VALID,98.5684,VALID,0,VALID,19.5201,VALID,103,VALID,0,
2001-05-16, 00:06:00,VALID,918.767,VALID,0,VALID,98.7019,VALID,0,VALID,19.5584,VALID,81,VALID,0,
2001-05-16, 00:07:00,VALID,918.752,VALID,0,VALID,98.7757,VALID,0,VALID,19.6068,VALID,71,VALID,0,
2001-05-16, 00:08:00,VALID,918.746,VALID,0,VALID,98.838,VALID,0,VALID,19.6488,VALID,63,VALID,0,
2001-05-16, 00:09:00,VALID,918.736,VALID,0,VALID,98.9105,VALID,0.0169808,VALID,19.7231,VALID,61,VALID,0,
2001-05-16, 00:10:00,VALID,918.741,VALID,0,VALID,98.9181,VALID,0.0169808,VALID,19.739,VALID,61,VALID,0,
2001-05-16, 00:11:00,VALID,918.746,VALID,0,VALID,98.9156,VALID,0.0169808,VALID,19.7626,VALID,61,VALID,0,
2001-05-16, 00:12:00,VALID,918.738,VALID,0,VALID,98.9296,VALID,0,VALID,19.7852,VALID,61,VALID,0,
2001-05-16, 00:13:00,VALID,918.721,VALID,0,VALID,98.969,VALID,0,VALID,19.817,VALID,61,VALID,0,
2001-05-16, 00:14:00,VALID,918.708,VALID,0,VALID,99.0148,VALID,0,VALID,19.8848,VALID,61,VALID,0,
2001-05-16, 00:15:00,VALID,918.7,VALID,0,VALID,99.0364,VALID,0.0169808,VALID,19.9494,VALID,61,VALID,0,
2001-05-16, 00:16:00,VALID,918.694,VALID,0,VALID,99.0364,VALID,0.0169808,VALID,19.9815,VALID,61,VALID,0,
2001-05-16, 00:17:00,VALID,918.689,VALID,0,VALID,99.016,VALID,0.0169808,VALID,19.985,VALID,61,VALID,0,
2001-05-16, 00:18:00,VALID,918.686,VALID,0,VALID,98.9893,VALID,0,VALID,19.9723,VALID,61,VALID,0,
2001-05-16, 00:19:00,VALID,918.674,VALID,0,VALID,98.9537,VALID,0,VALID,19.943,VALID,60,VALID,0,
2001-05-16, 00:20:00,VALID,918.67,VALID,0,VALID,98.9677,VALID,0.0169808,VALID,19.9462,VALID,51,VALID,0,
2001-05-16, 00:21:00,VALID,918.659,VALID,0,VALID,99.0389,VALID,0.0169808,VALID,20.0165,VALID,44,VALID,0,
2001-05-16, 00:22:00,VALID,918.64,VALID,0,VALID,99.0745,VALID,0,VALID,20.1139,VALID,50,VALID,0,
2001-05-16, 00:23:00,VALID,918.63,VALID,0,VALID,99.0555,VALID,0,VALID,20.1301,VALID,46,VALID,0,
2001-05-16, 00:24:00,VALID,918.625,VALID,0,VALID,99.0644,VALID,0.0339617,VALID,20.1266,VALID,19,VALID,0,
2001-05-16, 00:25:00,VALID,918.626,VALID,0,VALID,99.072,VALID,0,VALID,20.1557,VALID,12,VALID,0,
2001-05-16, 00:26:00,VALID,918.631,VALID,0,VALID,99.0593,VALID,0,VALID,20.1718,VALID,357,VALID,0,
2001-05-16, 00:27:00,VALID,918.635,VALID,0,VALID,99.0733,VALID,0.0169808,VALID,20.2044,VALID,8,VALID,0,
2001-05-16, 00:28:00,VALID,918.614,VALID,0,VALID,99.0771,VALID,0,VALID,20.2335,VALID,20,VALID,0,
2001-05-16, 00:29:00,VALID,918.606,VALID,0,VALID,99.0771,VALID,0.0339617,VALID,20.266,VALID,20,VALID,0,
2001-05-16, 00:30:00,VALID,918.578,VALID,0,VALID,99.072,VALID,-0.0169808,VALID,20.2628,VALID,19,VALID,0,
2001-05-16, 00:31:00,VALID,918.561,VALID,0,VALID,99.0644,VALID,0,VALID,20.2819,VALID,17,VALID,0,
2001-05-16, 00:32:00,VALID,918.535,VALID,0,VALID,99.0618,VALID,0,VALID,20.2948,VALID,20,VALID,0,
2001-05-16, 00:33:00,VALID,918.511,VALID,0,VALID,99.0529,VALID,0,VALID,20.318,VALID,14,VALID,0,
2001-05-16, 00:34:00,VALID,918.503,VALID,0,VALID,99.0389,VALID,-0.0169808,VALID,20.3142,VALID,350,VALID,0,
2001-05-16, 00:35:00,VALID,918.503,VALID,0,VALID,99.0529,VALID,0.0169808,VALID,20.3498,VALID,325,VALID,0,
2001-05-16, 00:36:00,VALID,918.484,VALID,0,VALID,99.0529,VALID,-0.0169808,VALID,20.3788,VALID,292,VALID,0,
2001-05-16, 00:37:00,VALID,918.479,VALID,0,VALID,99.0377,VALID,0,VALID,20.3952,VALID,285,VALID,0,
2001-05-16, 00:38:00,VALID,918.451,VALID,0,VALID,99.0415,VALID,0,VALID,20.4047,VALID,304,VALID,0,
2001-05-16, 00:39:00,VALID,918.431,VALID,0,VALID,99.0313,VALID,0,VALID,20.4047,VALID,9,VALID,0,
2001-05-16, 00:40:00,VALID,918.429,VALID,0,VALID,98.9881,VALID,0.0339617,VALID,20.3883,VALID,21,VALID,0,
2001-05-16, 00:41:00,VALID,918.44,VALID,0,VALID,98.9639,VALID,0.0339617,VALID,20.3783,VALID,21,VALID,0,
2001-05-16, 00:42:00,VALID,918.438,VALID,0,VALID,98.9474,VALID,0.0169808,VALID,20.3684,VALID,21,VALID,0,
2001-05-16, 00:43:00,VALID,918.444,VALID,0,VALID,98.9092,VALID,0.0169808,VALID,20.3589,VALID,22,VALID,0,
2001-05-16, 00:44:00,VALID,918.446,VALID,0,VALID,98.8711,VALID,0,VALID,20.343,VALID,22,VALID,0,
2001-05-16, 00:45:00,VALID,918.451,VALID,0,VALID,98.824,VALID,0,VALID,20.3169,VALID,22,VALID,0,
2001-05-16, 00:46:00,VALID,918.458,VALID,0,VALID,98.8049,VALID,0.0169808,VALID,20.2998,VALID,22,VALID,0,
2001-05-16, 00:47:00,VALID,918.45,VALID,0,VALID,98.7948,VALID,0.0169808,VALID,20.3167,VALID,22,VALID,0,
2001-05-16, 00:48:00,VALID,918.446,VALID,0,VALID,98.7401,VALID,0.0169808,VALID,20.2903,VALID,22,VALID,0,
2001-05-16, 00:49:00,VALID,918.44,VALID,0,VALID,98.7363,VALID,0,VALID,20.3269,VALID,22,VALID,0,
2001-05-16, 00:50:00,VALID,918.434,VALID,0,VALID,98.6969,VALID,0,VALID,20.3266,VALID,21,VALID,0,
2001-05-16, 00:51:00,VALID,918.416,VALID,0,VALID,98.6511,VALID,0,VALID,20.31,VALID,14,VALID,0,
2001-05-16, 00:52:00,VALID,918.404,VALID,0,VALID,98.6447,VALID,0,VALID,20.3296,VALID,19,VALID,0,
2001-05-16, 00:53:00,VALID,918.384,VALID,0,VALID,98.6269,VALID,0.0339617,VALID,20.3231,VALID,19,VALID,0,
2001-05-16, 00:54:00,VALID,918.353,VALID,0,VALID,98.6142,VALID,0.0169808,VALID,20.3299,VALID,19,VALID,0,
2001-05-16, 00:55:00,VALID,918.349,VALID,0,VALID,98.6651,VALID,0,VALID,20.3651,VALID,19,VALID,0,
2001-05-16, 00:56:00,VALID,918.331,VALID,0,VALID,98.6956,VALID,0,VALID,20.3877,VALID,18,VALID,0,
2001-05-16, 00:57:00,VALID,918.312,VALID,0,VALID,98.6702,VALID,0,VALID,20.4014,VALID,17,VALID,0,
2001-05-16, 00:58:00,VALID,918.293,VALID,0,VALID,98.6791,VALID,0,VALID,20.4106,VALID,17,VALID,0,
2001-05-16, 00:59:00,VALID,918.265,VALID,0,VALID,98.6829,VALID,0,VALID,20.4233,VALID,17,VALID,0,
2001-05-16, 01:00:00,VALID,918.241,VALID,0,VALID,98.6943,VALID,0,VALID,20.4496,VALID,17,VALID,0,
2001-05-16, 01:01:00,VALID,918.208,VALID,0,VALID,98.6803,VALID,0,VALID,20.4521,VALID,16,VALID,0,
2001-05-16, 01:02:00,VALID,918.197,VALID,0,VALID,98.6562,VALID,0,VALID,20.4529,VALID,15,VALID,0,
2001-05-16, 01:03:00,VALID,918.183,VALID,0,VALID,98.6587,VALID,0.0169808,VALID,20.4586,VALID,20,VALID,0,
2001-05-16, 01:04:00,VALID,918.157,VALID,0,VALID,98.6435,VALID,0.0169808,VALID,20.4658,VALID,18,VALID,0,
2001-05-16, 01:05:00,VALID,918.134,VALID,0,VALID,98.6574,VALID,0.0169808,VALID,20.4683,VALID,11,VALID,0,
2001-05-16, 01:06:00,VALID,918.109,VALID,0,VALID,98.6587,VALID,0,VALID,20.475,VALID,14,VALID,0,
2001-05-16, 01:07:00,VALID,918.118,VALID,0,VALID,98.6549,VALID,0,VALID,20.4849,VALID,22,VALID,0,
2001-05-16, 01:08:00,VALID,918.13,VALID,0,VALID,98.6231,VALID,0,VALID,20.4683,VALID,22,VALID,0,
2001-05-16, 01:09:00,VALID,918.116,VALID,0,VALID,98.5697,VALID,0,VALID,20.4454,VALID,22,VALID,0,
2001-05-16, 01:10:00,VALID,918.086,VALID,0,VALID,98.5455,VALID,0,VALID,20.4327,VALID,16,VALID,0,
2001-05-16, 01:11:00,VALID,918.056,VALID,0,VALID,98.5392,VALID,0.0169808,VALID,20.4362,VALID,20,VALID,0,
2001-05-16, 01:12:00,VALID,918.032,VALID,0,VALID,98.529,VALID,0,VALID,20.4399,VALID,360,VALID,0,
2001-05-16, 01:13:00,VALID,918.018,VALID,0,VALID,98.5506,VALID,0.0169808,VALID,20.4491,VALID,22,VALID,0,
2001-05-16, 01:14:00,VALID,918.002,VALID,0,VALID,98.5303,VALID,0.0169808,VALID,20.4658,VALID,339,VALID,0,
2001-05-16, 01:15:00,VALID,918.004,VALID,0,VALID,98.515,VALID,0,VALID,20.4551,VALID,261,VALID,0,
2001-05-16, 01:16:00,VALID,918.003,VALID,0,VALID,98.5112,VALID,0,VALID,20.5013,VALID,267,VALID,0,
2001-05-16, 01:17:00,VALID,917.999,VALID,0,VALID,98.4667,VALID,0,VALID,20.4812,VALID,267,VALID,0,
2001-05-16, 01:18:00,VALID,917.995,VALID,0,VALID,98.4196,VALID,0.0169808,VALID,20.4817,VALID,267,VALID,0,
2001-05-16, 01:19:00,VALID,918.001,VALID,0,VALID,98.3612,VALID,0.0169808,VALID,20.4755,VALID,267,VALID,0,
2001-05-16, 01:20:00,VALID,917.972,VALID,0,VALID,98.3497,VALID,0,VALID,20.4588,VALID,267,VALID,0,
2001-05-16, 01:21:00,VALID,917.959,VALID,0,VALID,98.3395,VALID,-0.0169808,VALID,20.4626,VALID,267,VALID,0,
2001-05-16, 01:22:00,VALID,917.933,VALID,0,VALID,98.3179,VALID,0,VALID,20.4394,VALID,263,VALID,0,
2001-05-16, 01:23:00,VALID,917.894,VALID,0,VALID,98.2849,VALID,0.0169808,VALID,20.4228,VALID,260,VALID,0,
2001-05-16, 01:24:00,VALID,917.861,VALID,0,VALID,98.2454,VALID,-0.0339617,VALID,20.4275,VALID,256,VALID,0,
2001-05-16, 01:25:00,VALID,917.844,VALID,0,VALID,98.22,VALID,-0.0679233,VALID,20.3855,VALID,245,VALID,0,
2001-05-16, 01:26:00,VALID,917.812,VALID,0,VALID,98.2658,VALID,-0.101885,VALID,20.3726,VALID,243,VALID,0,
2001-05-16, 01:27:00,VALID,917.778,VALID,0,VALID,98.3179,VALID,-0.0679233,VALID,20.3796,VALID,243,VALID,0,
2001-05-16, 01:28:00,VALID,917.739,VALID,0,VALID,98.2009,VALID,-0.0849042,VALID,20.353,VALID,243,VALID,0,
2001-05-16, 01:29:00,VALID,917.724,VALID,0,VALID,98.0928,VALID,-0.0679233,VALID,20.3147,VALID,243,VALID,0,
2001-05-16, 01:30:00,VALID,917.696,VALID,0,VALID,98.0547,VALID,-0.101885,VALID,20.2854,VALID,243,VALID,0,
2001-05-16, 01:31:00,VALID,917.678,VALID,0,VALID,98.0534,VALID,-0.0849042,VALID,20.2698,VALID,243,VALID,0,
2001-05-16, 01:32:00,VALID,917.669,VALID,0,VALID,98.0356,VALID,-0.0679233,VALID,20.2571,VALID,243,VALID,0,
2001-05-16, 01:33:00,VALID,917.643,VALID,0,VALID,97.9619,VALID,-0.101885,VALID,20.2347,VALID,243,VALID,0,
2001-05-16, 01:34:01,VALID,917.62,VALID,0,VALID,97.6313,VALID,-0.0679233,VALID,20.1333,VALID,243,VALID,0,
2001-05-16, 01:35:00,VALID,917.603,VALID,0,VALID,97.2307,VALID,-0.0849042,VALID,20.0302,VALID,258,VALID,0,
2001-05-16, 01:36:00,VALID,917.602,VALID,0,VALID,97.1124,VALID,-0.101885,VALID,19.9527,VALID,319,VALID,0,
2001-05-16, 01:37:00,VALID,917.6,VALID,0,VALID,97.6046,VALID,-0.0849042,VALID,19.989,VALID,319,VALID,0,
2001-05-16, 01:38:00,VALID,917.605,VALID,0,VALID,97.8563,VALID,-0.0679233,VALID,20.0175,VALID,303,VALID,0,
2001-05-16, 01:39:00,VALID,917.595,VALID,0,VALID,98.1208,VALID,-0.0679233,VALID,20.0724,VALID,259,VALID,0,
2001-05-16, 01:40:00,VALID,917.589,VALID,0,VALID,98.3217,VALID,-0.0169808,VALID,20.1196,VALID,265,VALID,0,
2001-05-16, 01:41:00,VALID,917.564,VALID,0,VALID,98.412,VALID,-0.0339617,VALID,20.1688,VALID,267,VALID,0,
2001-05-16, 01:42:00,VALID,917.553,VALID,0,VALID,98.4578,VALID,-0.0679233,VALID,20.182,VALID,267,VALID,0,
2001-05-16, 01:43:00,VALID,917.534,VALID,0,VALID,98.4476,VALID,0,VALID,20.1721,VALID,267,VALID,0,
2001-05-16, 01:44:00,VALID,917.54,VALID,0,VALID,98.4031,VALID,-0.0169808,VALID,20.1465,VALID,239,VALID,0,
2001-05-16, 01:45:00,VALID,917.55,VALID,0,VALID,98.4171,VALID,-0.0339617,VALID,20.1271,VALID,225,VALID,0,
2001-05-16, 01:46:01,VALID,917.577,VALID,0,VALID,98.4006,VALID,-0.0509425,VALID,20.1209,VALID,225,VALID,0,
2001-05-16, 01:47:00,VALID,917.596,VALID,0,VALID,98.4044,VALID,-0.0339617,VALID,20.0846,VALID,226,VALID,0,
2001-05-16, 01:48:00,VALID,917.614,VALID,0,VALID,98.3968,VALID,-0.0509425,VALID,20.0824,VALID,226,VALID,0,
2001-05-16, 01:49:00,VALID,917.624,VALID,0,VALID,98.3154,VALID,-0.0679233,VALID,20.0203,VALID,226,VALID,0,
2001-05-16, 01:50:00,VALID,917.612,VALID,0,VALID,98.3141,VALID,-0.101885,VALID,20.014,VALID,226,VALID,0,
2001-05-16, 01:51:00,VALID,917.608,VALID,0,VALID,98.1526,VALID,-0.0169808,VALID,19.943,VALID,226,VALID,0,
2001-05-16, 01:52:00,VALID,917.596,VALID,0,VALID,98.2696,VALID,-0.0169808,VALID,19.9298,VALID,226,VALID,0,
2001-05-16, 01:53:00,VALID,917.59,VALID,0,VALID,98.3446,VALID,0,VALID,19.9492,VALID,226,VALID,0,
2001-05-16, 01:54:00,VALID,917.593,VALID,0,VALID,98.3001,VALID,-0.0339617,VALID,19.9462,VALID,226,VALID,0,
2001-05-16, 01:55:00,VALID,917.598,VALID,0,VALID,98.3039,VALID,0,VALID,19.943,VALID,226,VALID,0,
2001-05-16, 01:56:00,VALID,917.605,VALID,0,VALID,98.206,VALID,-0.0169808,VALID,19.9236,VALID,226,VALID,0,
2001-05-16, 01:57:01,VALID,917.606,VALID,0,VALID,98.1768,VALID,-0.0679233,VALID,19.8881,VALID,225,VALID,0,
2001-05-16, 01:58:01,VALID,917.604,VALID,0,VALID,98.2582,VALID,-0.0339617,VALID,19.8851,VALID,226,VALID,0,
2001-05-16, 01:59:00,VALID,917.607,VALID,0,VALID,98.3077,VALID,-0.0339617,VALID,19.8848,VALID,226,VALID,0,
2001-05-16, 02:00:01,VALID,917.624,VALID,0,VALID,98.3523,VALID,-0.0509425,VALID,19.8945,VALID,226,VALID,0,
2001-05-16, 02:01:00,VALID,917.606,VALID,0,VALID,98.4756,VALID,-0.0169808,VALID,19.9365,VALID,226,VALID,0,
2001-05-16, 02:02:00,VALID,917.593,VALID,0,VALID,98.5417,VALID,-0.0169808,VALID,19.9758,VALID,226,VALID,0,
2001-05-16, 02:03:00,VALID,917.567,VALID,0,VALID,98.6269,VALID,0,VALID,19.9979,VALID,226,VALID,0,
2001-05-16, 02:04:00,VALID,917.545,VALID,0,VALID,98.6689,VALID,0,VALID,20.0334,VALID,226,VALID,0,
2001-05-16, 02:05:00,VALID,917.566,VALID,0,VALID,98.6409,VALID,-0.0169808,VALID,20.0463,VALID,226,VALID,0,
2001-05-16, 02:06:00,VALID,917.574,VALID,0,VALID,98.6358,VALID,0,VALID,20.0627,VALID,226,VALID,0,
2001-05-16, 02:07:00,VALID,917.576,VALID,0,VALID,98.5532,VALID,-0.0339617,VALID,20.0334,VALID,226,VALID,0,
2001-05-16, 02:08:00,VALID,917.587,VALID,0,VALID,98.5188,VALID,0,VALID,20.0078,VALID,225,VALID,0,
2001-05-16, 02:09:01,VALID,917.602,VALID,0,VALID,98.5379,VALID,-0.0509425,VALID,20.0046,VALID,226,VALID,0,
2001-05-16, 02:10:01,VALID,917.613,VALID,0,VALID,98.5494,VALID,-0.0509425,VALID,19.9949,VALID,226,VALID,0,
2001-05-16, 02:11:00,VALID,917.641,VALID,0,VALID,98.5468,VALID,-0.0679233,VALID,20.0016,VALID,226,VALID,0,
2001-05-16, 02:12:00,VALID,917.655,VALID,0,VALID,98.5608,VALID,-0.0849042,VALID,20.0081,VALID,225,VALID,0,
2001-05-16, 02:13:00,VALID,917.669,VALID,0,VALID,98.6028,VALID,-0.0849042,VALID,20.0046,VALID,226,VALID,0,
2001-05-16, 02:14:00,VALID,917.675,VALID,0,VALID,98.44,VALID,-0.0339617,VALID,19.9827,VALID,225,VALID,0,
2001-05-16, 02:15:00,VALID,917.659,VALID,0,VALID,98.2073,VALID,-0.0679233,VALID,19.8689,VALID,225,VALID,0,
2001-05-16, 02:16:00,VALID,917.644,VALID,0,VALID,98.2086,VALID,-0.0679233,VALID,19.8339,VALID,226,VALID,0,
2001-05-16, 02:17:00,VALID,917.641,VALID,0,VALID,98.309,VALID,-0.0509425,VALID,19.8366,VALID,226,VALID,0,
2001-05-16, 02:18:00,VALID,917.619,VALID,0,VALID,98.4616,VALID,-0.0679233,VALID,19.8791,VALID,226,VALID,0,
2001-05-16, 02:19:00,VALID,917.632,VALID,0,VALID,98.5837,VALID,-0.0339617,VALID,19.9241,VALID,226,VALID,0,
2001-05-16, 02:20:00,VALID,917.661,VALID,0,VALID,98.6117,VALID,0,VALID,19.9465,VALID,226,VALID,0,
2001-05-16, 02:21:00,VALID,917.67,VALID,0,VALID,98.6613,VALID,-0.0339617,VALID,19.9855,VALID,226,VALID,0,
2001-05-16, 02:22:01,VALID,917.681,VALID,0,VALID,98.66,VALID,0,VALID,19.9981,VALID,226,VALID,0,
2001-05-16, 02:23:00,VALID,917.676,VALID,0,VALID,98.557,VALID,-0.0339617,VALID,19.9492,VALID,226,VALID,0,
2001-05-16, 02:24:00,VALID,917.658,VALID,0,VALID,98.515,VALID,-0.0339617,VALID,19.9363,VALID,226,VALID,0,
2001-05-16, 02:25:00,VALID,917.621,VALID,0,VALID,98.4425,VALID,-0.0339617,VALID,19.9238,VALID,226,VALID,0,
2001-05-16, 02:26:00,VALID,917.573,VALID,0,VALID,98.3968,VALID,0,VALID,19.9206,VALID,226,VALID,0,
2001-05-16, 02:27:00,VALID,917.59,VALID,0,VALID,98.4146,VALID,0,VALID,19.9397,VALID,226,VALID,0,
2001-05-16, 02:28:00,VALID,917.622,VALID,0,VALID,98.4769,VALID,-0.0509425,VALID,19.9755,VALID,226,VALID,0,
2001-05-16, 02:29:00,VALID,917.637,VALID,0,VALID,98.5519,VALID,-0.0169808,VALID,20.0237,VALID,226,VALID,0,
2001-05-16, 02:30:00,VALID,917.628,VALID,0,VALID,98.6129,VALID,0,VALID,20.0819,VALID,250,VALID,0,
2001-05-16, 02:31:00,VALID,917.593,VALID,0,VALID,98.6244,VALID,-0.0169808,VALID,20.1018,VALID,250,VALID,0,
2001-05-16, 02:32:00,VALID,917.581,VALID,0,VALID,98.5417,VALID,-0.0169808,VALID,20.0724,VALID,250,VALID,0,
2001-05-16, 02:33:01,VALID,917.576,VALID,0,VALID,98.3917,VALID,-0.0169808,VALID,20.0113,VALID,250,VALID,0,
2001-05-16, 02:34:01,VALID,917.587,VALID,0,VALID,98.3421,VALID,-0.0169808,VALID,19.9917,VALID,250,VALID,0,
2001-05-16, 02:35:00,VALID,917.578,VALID,0,VALID,98.365,VALID,-0.0679233,VALID,19.9917,VALID,250,VALID,0,
2001-05-16, 02:36:01,VALID,917.542,VALID,0,VALID,98.4184,VALID,-0.0509425,VALID,20.0245,VALID,250,VALID,0,
2001-05-16, 02:37:00,VALID,917.499,VALID,0,VALID,98.4451,VALID,-0.0339617,VALID,20.0469,VALID,250,VALID,0,
2001-05-16, 02:38:00,VALID,917.461,VALID,0,VALID,98.454,VALID,-0.0169808,VALID,20.0466,VALID,250,VALID,0,
2001-05-16, 02:39:00,VALID,917.468,VALID,0,VALID,98.3688,VALID,-0.0339617,VALID,20.0138,VALID,250,VALID,0,
2001-05-16, 02:40:00,VALID,917.465,VALID,0,VALID,98.3675,VALID,0,VALID,20.0041,VALID,250,VALID,0,
2001-05-16, 02:41:00,VALID,917.465,VALID,0,VALID,98.379,VALID,0,VALID,19.9879,VALID,252,VALID,0,
2001-05-16, 02:42:00,VALID,917.46,VALID,0,VALID,98.2632,VALID,0,VALID,19.9591,VALID,252,VALID,0,
2001-05-16, 02:43:00,VALID,917.452,VALID,0,VALID,98.0496,VALID,0,VALID,19.8687,VALID,252,VALID,0,
2001-05-16, 02:44:00,VALID,917.424,VALID,0,VALID,98.0242,VALID,0,VALID,19.8294,VALID,252,VALID,0,
2001-05-16, 02:45:01,VALID,917.418,VALID,0,VALID,98.1488,VALID,0,VALID,19.8257,VALID,252,VALID,0,
2001-05-16, 02:46:01,VALID,917.42,VALID,0,VALID,98.2149,VALID,0.0169808,VALID,19.8423,VALID,252,VALID,0,
2001-05-16, 02:47:00,VALID,917.442,VALID,0,VALID,98.2582,VALID,0.0169808,VALID,19.8687,VALID,252,VALID,0,
2001-05-16, 02:48:00,VALID,917.462,VALID,0,VALID,98.1361,VALID,0,VALID,19.8103,VALID,252,VALID,0,
2001-05-16, 02:49:00,VALID,917.462,VALID,0,VALID,98.192,VALID,0.0169808,VALID,19.8006,VALID,252,VALID,0,
2001-05-16, 02:50:00,VALID,917.435,VALID,0,VALID,98.0979,VALID,0.0169808,VALID,19.7882,VALID,252,VALID,0,
2001-05-16, 02:51:00,VALID,917.414,VALID,0,VALID,97.9797,VALID,0,VALID,19.7199,VALID,341,VALID,0,
2001-05-16, 02:52:00,VALID,917.37,VALID,0,VALID,98.2225,VALID,0,VALID,19.739,VALID,21,VALID,0,
2001-05-16, 02:53:00,VALID,917.333,VALID,0,VALID,98.4476,VALID,0,VALID,19.8001,VALID,21,VALID,0,
2001-05-16, 02:54:00,VALID,917.317,VALID,0,VALID,98.5315,VALID,0,VALID,19.8423,VALID,21,VALID,0,
2001-05-16, 02:55:00,VALID,917.333,VALID,0,VALID,98.5773,VALID,0,VALID,19.8657,VALID,21,VALID,0,
2001-05-16, 02:56:00,VALID,917.355,VALID,0,VALID,98.6028,VALID,0,VALID,19.8786,VALID,17,VALID,0,
2001-05-16, 02:57:00,VALID,917.395,VALID,0,VALID,98.6422,VALID,0,VALID,19.901,VALID,17,VALID,0,
2001-05-16, 02:58:01,VALID,917.418,VALID,0,VALID,98.6956,VALID,-0.0169808,VALID,19.9266,VALID,17,VALID,0,
2001-05-16, 02:59:01,VALID,917.39,VALID,0,VALID,98.6867,VALID,0.0169808,VALID,19.9266,VALID,17,VALID,0,
2001-05-16, 03:00:00,VALID,917.358,VALID,0,VALID,98.7236,VALID,0,VALID,19.9462,VALID,17,VALID,0,
2001-05-16, 03:01:00,VALID,917.34,VALID,0,VALID,98.7554,VALID,0.0169808,VALID,19.9688,VALID,17,VALID,0,
2001-05-16, 03:02:01,VALID,917.343,VALID,0,VALID,98.763,VALID,0,VALID,19.982,VALID,17,VALID,0,
2001-05-16, 03:03:00,VALID,917.359,VALID,0,VALID,98.7821,VALID,0,VALID,19.9882,VALID,17,VALID,0,
2001-05-16, 03:04:00,VALID,917.357,VALID,0,VALID,98.7782,VALID,0,VALID,19.9847,VALID,16,VALID,0,
2001-05-16, 03:05:00,VALID,917.362,VALID,0,VALID,98.763,VALID,0,VALID,19.978,VALID,8,VALID,0,
2001-05-16, 03:06:00,VALID,917.359,VALID,0,VALID,98.8253,VALID,0,VALID,20.0267,VALID,3,VALID,0,
2001-05-16, 03:07:01,VALID,917.349,VALID,0,VALID,98.8037,VALID,0,VALID,20.0108,VALID,20,VALID,0,
2001-05-16, 03:08:00,VALID,917.333,VALID,0,VALID,98.81,VALID,0,VALID,19.9979,VALID,345,VALID,0,
2001-05-16, 03:09:01,VALID,917.309,VALID,0,VALID,98.8456,VALID,-0.0169808,VALID,20.0208,VALID,341,VALID,0,
2001-05-16, 03:10:01,VALID,917.273,VALID,0,VALID,98.8456,VALID,-0.101885,VALID,20.0479,VALID,331,VALID,0,
2001-05-16, 03:11:01,VALID,917.263,VALID,0,VALID,98.8355,VALID,-0.0849042,VALID,20.0247,VALID,294,VALID,0,
2001-05-16, 03:12:01,VALID,917.259,VALID,0,VALID,98.8456,VALID,-0.101885,VALID,20.0414,VALID,294,VALID,0,
2001-05-16, 03:13:01,VALID,917.254,VALID,0,VALID,98.8584,VALID,-0.101885,VALID,20.0538,VALID,294,VALID,0,
2001-05-16, 03:14:01,VALID,917.271,VALID,0,VALID,98.8647,VALID,-0.101885,VALID,20.057,VALID,294,VALID,0,
2001-05-16, 03:15:01,VALID,917.298,VALID,0,VALID,98.8545,VALID,-0.0679233,VALID,20.0737,VALID,294,VALID,0,
2001-05-16, 03:16:01,VALID,917.313,VALID,0,VALID,98.7922,VALID,-0.118866,VALID,20.0277,VALID,294,VALID,0,
2001-05-16, 03:17:01,VALID,917.296,VALID,0,VALID,98.7452,VALID,-0.101885,VALID,19.9954,VALID,294,VALID,0,
2001-05-16, 03:18:01,VALID,917.284,VALID,0,VALID,98.7617,VALID,-0.101885,VALID,19.9731,VALID,238,VALID,0,
2001-05-16, 03:19:01,VALID,917.248,VALID,0,VALID,98.7859,VALID,-0.118866,VALID,19.983,VALID,161,VALID,0,
2001-05-16, 03:20:01,VALID,917.222,VALID,0,VALID,98.8723,VALID,-0.101885,VALID,20.0188,VALID,155,VALID,0,
2001-05-16, 03:21:01,VALID,917.211,VALID,0,VALID,98.9079,VALID,-0.101885,VALID,20.0541,VALID,155,VALID,0,
2001-05-16, 03:22:01,VALID,917.204,VALID,0,VALID,98.8914,VALID,-0.101885,VALID,20.0541,VALID,155,VALID,0,
2001-05-16, 03:23:01,VALID,917.2,VALID,0,VALID,98.9079,VALID,-0.101885,VALID,20.0635,VALID,155,VALID,0,
2001-05-16, 03:24:01,VALID,917.172,VALID,0,VALID,98.8774,VALID,-0.0509425,VALID,20.0565,VALID,155,VALID,0,
2001-05-16, 03:25:01,VALID,917.164,VALID,0,VALID,98.8164,VALID,0.0339617,VALID,20.0197,VALID,155,VALID,0,
2001-05-16, 03:26:01,VALID,917.161,VALID,0,VALID,98.7935,VALID,0,VALID,19.9773,VALID,155,VALID,0,
2001-05-16, 03:27:01,VALID,917.153,VALID,0,VALID,98.8037,VALID,0,VALID,19.9651,VALID,150,VALID,0,
2001-05-16, 03:28:01,VALID,917.133,VALID,0,VALID,98.8291,VALID,0.0169808,VALID,19.9487,VALID,143,VALID,0,
2001-05-16, 03:29:01,VALID,917.143,VALID,0,VALID,98.8431,VALID,0.0169808,VALID,19.9492,VALID,143,VALID,0,
2001-05-16, 03:30:01,VALID,917.145,VALID,0,VALID,98.8622,VALID,0.0169808,VALID,19.9556,VALID,143,VALID,0,
2001-05-16, 03:31:01,VALID,917.144,VALID,0,VALID,98.899,VALID,0.0169808,VALID,19.9619,VALID,144,VALID,0,
2001-05-16, 03:32:00,VALID,917.129,VALID,0,VALID,98.894,VALID,0.0169808,VALID,19.9554,VALID,148,VALID,0,
2001-05-16, 03:33:00,VALID,917.121,VALID,0,VALID,98.8927,VALID,0,VALID,19.9621,VALID,154,VALID,0,
2001-05-16, 03:34:00,VALID,917.091,VALID,0,VALID,98.8838,VALID,0.0169808,VALID,19.9484,VALID,155,VALID,0,
2001-05-16, 03:35:00,VALID,917.06,VALID,0,VALID,98.8889,VALID,0.0169808,VALID,19.9353,VALID,155,VALID,0,
2001-05-16, 03:36:00,VALID,917.048,VALID,0,VALID,98.9079,VALID,0.0509425,VALID,19.9427,VALID,155,VALID,0,
2001-05-16, 03:37:00,VALID,917.02,VALID,0,VALID,98.9258,VALID,0.0339617,VALID,19.9489,VALID,154,VALID,0,
2001-05-16, 03:38:00,VALID,917.008,VALID,0,VALID,98.9728,VALID,0.0169808,VALID,19.9715,VALID,165,VALID,0,
2001-05-16, 03:39:00,VALID,916.995,VALID,0,VALID,98.9703,VALID,0,VALID,19.9773,VALID,175,VALID,0,
2001-05-16, 03:40:00,VALID,916.973,VALID,0,VALID,98.9855,VALID,0,VALID,19.9877,VALID,180,VALID,0,
2001-05-16, 03:41:00,VALID,916.967,VALID,0,VALID,98.9639,VALID,-0.0169808,VALID,20.0036,VALID,176,VALID,0,
2001-05-16, 03:42:00,VALID,916.948,VALID,0,VALID,98.9703,VALID,-0.0169808,VALID,19.9976,VALID,184,VALID,0,
2001-05-16, 03:43:00,VALID,916.92,VALID,0,VALID,98.9626,VALID,0,VALID,19.9877,VALID,185,VALID,0,
2001-05-16, 03:44:00,VALID,916.923,VALID,0,VALID,98.9779,VALID,0.0169808,VALID,19.9944,VALID,185,VALID,0,
2001-05-16, 03:45:00,VALID,916.95,VALID,0,VALID,99.0033,VALID,0,VALID,20.0006,VALID,185,VALID,0,
2001-05-16, 03:46:00,VALID,916.981,VALID,0,VALID,99.0237,VALID,0,VALID,20.0098,VALID,185,VALID,0,
2001-05-16, 03:47:00,VALID,916.981,VALID,0,VALID,99.0377,VALID,0.0169808,VALID,20.0361,VALID,203,VALID,0,
2001-05-16, 03:48:00,VALID,916.953,VALID,0,VALID,99.0249,VALID,0,VALID,20.0327,VALID,208,VALID,0,
2001-05-16, 03:49:00,VALID,916.947,VALID,0,VALID,99.0148,VALID,0.0169808,VALID,20.0458,VALID,208,VALID,0,